QPF
0.00 0.00 0.00 0.00 0.00 0.00 0.00 0.00 0.00 0.00 0.00 0.00 0.00 0.01 0.05 0.11 0.15 0.18 0.02 0.00 0.00 0.00 0.00 0.00 0.00 0.00 0.00 0.00 0.00 0.03 0.03 0.05 0.01 0.03 0.04 0.03 0.04 0.05 0.03 0.03 0.01 0.00 0.00 0.01 0.01 0.01 0.00 0.00 0.00
0.00 0.00 0.00 0.00 0.00 0.00 0.00 0.00 0.00 0.00 0.00 0.00 0.00 0.00 0.00 0.02 0.00 0.00 0.00 0.00 0.00 0.00 0.00 0.00 0.00 0.00 0.00 0.00 0.00 0.01 0.01 0.02 0.02 0.02 0.06 0.02 0.02 0.01 0.00 0.00 0.01 0.00 0.00 0.07 0.11 0.04 0.01 0.00 0.00
0.00 0.00 0.00 0.00 0.00 0.00 0.00 0.00 0.00 0.00 0.00 0.00 0.00 0.00 0.00 0.00 0.00 0.00 0.00 0.00 0.00 0.00 0.00 0.00 0.00 0.00 0.00 0.00 0.00 0.00 0.00 0.01 0.01 0.02 0.04 0.00 0.00 0.00 0.00 0.02 0.00 0.00 0.07 0.01 0.11 0.09 0.03 0.00 0.00
0.00 0.00 0.00 0.00 0.00 0.00 0.00 0.00 0.00 0.00 0.00 0.00 0.00 0.00 0.00 0.00 0.00 0.00 0.00 0.00 0.00 0.00 0.00 0.00 0.00 0.00 0.00 0.00 0.00 0.00 0.00 0.01 0.01 0.01 0.01 0.05 0.07 0.06 0.02 0.01 0.00 0.00 0.06 0.10 0.09 0.02 0.02 0.01 0.01
0.00 0.00 0.00 0.00 0.00 0.00 0.00 0.00 0.00 0.00 0.00 0.00 0.00 0.00 0.00 0.00 0.00 0.00 0.00 0.00 0.00 0.01 0.00 0.00 0.00 0.00 0.00 0.00 0.00 0.00 0.00 0.00 0.00 0.00 0.00 0.00 0.06 0.10 0.07 0.03 0.01 0.00 0.00 0.03 0.16 0.05 0.01 0.02 0.00
0.00 0.00 0.00 0.00 0.00 0.00 0.00 0.00 0.00 0.00 0.00 0.00 0.00 0.00 0.00 0.00 0.00 0.00 0.00 0.00 0.00 0.01 0.00 0.00 0.00 0.00 0.00 0.00 0.00 0.00 0.00 0.00 0.00 0.00 0.00 0.00 0.02 0.04 0.04 0.05 0.02 0.00 0.00 0.00 0.11 0.11 0.02 0.11 0.00
0.00 0.00 0.00 0.00 0.00 0.00 0.00 0.00 0.00 0.00 0.00 0.00 0.00 0.00 0.00 0.00 0.00 0.00 0.00 0.00 0.00 0.00 0.00 0.00 0.00 0.00 0.00 0.00 0.00 0.00 0.00 0.01 0.00 0.00 0.01 0.02 0.00 0.00 0.00 0.00 0.00 0.00 0.00 0.00 0.00 0.01 0.01 0.01 0.03
0.00 0.00 0.00 0.00 0.00 0.00 0.00 0.00 0.00 0.00 0.00 0.00 0.00 0.00 0.00 0.00 0.00 0.00 0.00 0.00 0.00 0.00 0.00 0.00 0.03 0.03 0.02 0.01 0.01 0.00 0.00 0.00 0.01 0.03 0.01 0.00 0.01 0.03 0.01 0.00 0.00 0.00 0.00 0.00 0.00 0.00 0.00 0.00 0.03
0.00 0.00 0.00 0.00 0.00 0.00 0.00 0.00 0.00 0.00 0.00 0.00 0.00 0.00 0.00 0.00 0.00 0.00 0.00 0.00 0.00 0.00 0.00 0.00 0.01 0.06 0.11 0.10 0.06 0.02 0.00 0.01 0.00 0.04 0.02 0.00 0.00 0.04 0.02 0.00 0.01 0.00 0.00 0.00 0.00 0.00 0.00 0.00 0.06
0.00 0.00 0.00 0.00 0.00 0.00 0.00 0.00 0.00 0.00 0.00 0.00 0.00 0.00 0.00 0.00 0.00 0.00 0.00 0.00 0.00 0.00 0.00 0.00 0.00 0.01 0.04 0.00 0.05 0.00 0.00 0.00 0.00 0.00 0.02 0.00 0.00 0.00 0.01 0.01 0.00 0.00 0.00 0.00 0.00 0.00 0.00 0.00 0.00
0.00 0.00 0.00 0.00 0.00 0.00 0.00 0.00 0.00 0.00 0.00 0.00 0.00 0.00 0.00 0.00 0.00 0.00 0.00 0.00 0.00 0.00 0.00 0.00 0.00 0.00 0.00 0.00 0.00 0.02 0.00 0.00 0.00 0.00 0.00 0.02 0.03 0.00 0.00 0.03 0.00 0.01 0.01 0.01 0.01 0.00 0.00 0.00 0.01
0.00 0.00 0.00 0.00 0.00 0.00 0.00 0.00 0.00 0.00 0.00 0.00 0.00 0.00 0.00 0.00 0.00 0.00 0.00 0.00 0.00 0.00 0.00 0.00 0.00 0.00 0.00 0.00 0.00 0.03 0.00 0.00 0.00 0.00 0.00 0.13 0.04 0.02 0.10 0.07 0.04 0.17 0.12 0.11 0.08 0.00 0.00 0.00 0.00
0.00 0.00 0.00 0.00 0.00 0.00 0.00 0.00 0.00 0.00 0.00 0.00 0.00 0.00 0.00 0.00 0.00 0.00 0.00 0.00 0.00 0.00 0.00 0.00 0.00 0.00 0.00 0.00 0.00 0.02 0.01 0.01 0.00 0.00 0.04 0.11 0.11 0.08 0.10 0.20 0.28 0.17 0.02 0.01 0.00 0.00 0.00 0.00 0.00
0.00 0.00 0.00 0.00 0.00 0.00 0.00 0.00 0.00 0.00 0.00 0.00 0.00 0.00 0.00 0.00 0.00 0.00 0.00 0.00 0.00 0.00 0.00 0.00 0.00 0.00 0.00 0.02 0.11 0.18 0.04 0.03 0.02 0.00 0.08 0.10 0.09 0.12 0.12 0.18 0.26 0.07 0.05 0.01 0.01 0.01 0.02 0.04 0.00
0.00 0.00 0.00 0.00 0.00 0.00 0.00 0.00 0.00 0.00 0.00 0.00 0.00 0.00 0.00 0.00 0.00 0.00 0.00 0.00 0.00 0.00 0.00 0.00 0.00 0.00 0.00 0.00 0.15 0.09 0.04 0.03 0.03 0.03 0.03 0.02 0.02 0.01 0.07 0.09 0.11 0.02 0.02 0.03 0.05 0.03 0.02 0.02 0.01
0.00 0.00 0.00 0.00 0.00 0.00 0.00 0.00 0.00 0.00 0.00 0.00 0.00 0.00 0.00 0.00 0.00 0.00 0.00 0.00 0.00 0.00 0.00 0.00 0.00 0.00 0.00 0.00 0.04 0.15 0.04 0.06 0.01 0.01 0.03 0.01 0.00 0.00 0.03 0.12 0.08 0.06 0.04 0.05 0.12 0.09 0.09 0.06 0.10
0.00 0.00 0.00 0.00 0.00 0.00 0.00 0.00 0.00 0.00 0.00 0.00 0.00 0.00 0.00 0.00 0.00 0.00 0.00 0.00 0.00 0.00 0.00 0.00 0.00 0.00 0.00 0.00 0.00 0.07 0.13 0.01 0.01 0.00 0.02 0.02 0.08 0.11 0.09 0.06 0.10 0.17 0.07 0.04 0.05 0.16 0.03 0.06 0.12
0.00 0.00 0.00 0.00 0.00 0.00 0.00 0.00 0.00 0.00 0.00 0.00 0.00 0.00 0.00 0.00 0.00 0.00 0.00 0.00 0.00 0.00 0.00 0.00 0.00 0.00 0.00 0.00 0.01 0.04 0.01 0.00 0.00 0.00 0.00 0.00 0.22 0.13 0.07 0.09 0.04 0.04 0.02 0.00 0.00 0.01 0.01 0.01 0.04
0.00 0.00 0.00 0.00 0.00 0.00 0.00 0.00 0.00 0.00 0.00 0.00 0.00 0.00 0.00 0.00 0.00 0.00 0.00 0.00 0.00 0.00 0.00 0.00 0.00 0.00 0.00 0.00 0.01 0.01 0.00 0.00 0.00 0.00 0.00 0.06 0.25 0.17 0.13 0.06 0.03 0.01 0.00 0.00 0.00 0.00 0.01 0.02 0.03
0.00 0.00 0.00 0.00 0.00 0.00 0.00 0.00 0.00 0.00 0.00 0.00 0.00 0.00 0.00 0.00 0.00 0.00 0.00 0.00 0.00 0.00 0.00 0.00 0.01 0.00 0.00 0.00 0.00 0.00 0.00 0.00 0.00 0.00 0.04 0.05 0.05 0.10 0.03 0.01 0.02 0.01 0.00 0.01 0.01 0.04 0.02 0.00 0.07
0.00 0.00 0.00 0.00 0.00 0.00 0.00 0.00 0.00 0.00 0.00 0.00 0.00 0.00 0.00 0.00 0.00 0.00 0.00 0.00 0.00 0.00 0.00 0.00 0.02 0.00 0.00 0.00 0.00 0.00 0.00 0.00 0.00 0.02 0.02 0.03 0.09 0.08 0.03 0.02 0.02 0.02 0.01 0.00 0.00 0.01 0.04 0.05 0.11
0.00 0.00 0.00 0.00 0.00 0.00 0.00 0.00 0.00 0.00 0.00 0.00 0.00 0.00 0.00 0.00 0.00 0.00 0.00 0.00 0.00 0.00 0.00 0.00 0.00 0.00 0.00 0.00 0.00 0.00 0.00 0.00 0.04 0.07 0.07 0.06 0.06 0.03 0.00 0.00 0.00 0.00 0.00 0.01 0.03 0.08 0.13 0.16 0.14
0.00 0.00 0.00 0.00 0.00 0.00 0.00 0.00 0.00 0.00 0.00 0.00 0.00 0.00 0.00 0.00 0.00 0.00 0.00 0.00 0.00 0.00 0.00 0.00 0.00 0.01 0.00 0.00 0.00 0.00 0.00 0.01 0.02 0.04 0.05 0.07 0.02 0.00 0.00 0.00 0.00 0.01 0.03 0.08 0.11 0.10 0.12 0.13 0.14
0.00 0.00 0.00 0.00 0.00 0.00 0.00 0.00 0.00 0.00 0.00 0.00 0.00 0.00 0.00 0.00 0.00 0.00 0.00 0.00 0.00 0.00 0.00 0.00 0.00 0.00 0.00 0.00 0.00 0.00 0.01 0.04 0.04 0.03 0.03 0.00 0.00 0.00 0.00 0.01 0.00 0.00 0.01 0.03 0.06 0.08 0.10 0.15 0.12
0.00 0.00 0.00 0.00 0.00 0.00 0.00 0.00 0.00 0.00 0.00 0.00 0.00 0.00 0.00 0.00 0.00 0.00 0.00 0.00 0.00 0.00 0.00 0.00 0.00 0.00 0.00 0.00 0.00 0.02 0.02 0.01 0.01 0.00 0.00 0.00 0.00 0.00 0.00 0.01 0.00 0.00 0.00 0.00 0.00 0.03 0.10 0.19 0.20
0.00 0.00 0.00 0.00 0.00 0.00 0.00 0.00 0.00 0.00 0.00 0.00 0.00 0.00 0.00 0.00 0.00 0.00 0.00 0.00 0.00 0.00 0.00 0.00 0.01 0.01 0.00 0.00 0.00 0.01 0.02 0.01 0.00 0.00 0.00 0.00 0.00 0.00 0.00 0.00 0.00 0.00 0.00 0.00 0.00 0.00 0.00 0.03 0.10
0.00 0.00 0.00 0.00 0.00 0.00 0.00 0.00 0.00 0.00 0.00 0.00 0.00 0.00 0.00 0.00 0.00 0.00 0.00 0.00 0.00 0.00 0.00 0.00 0.01 0.00 0.00 0.00 0.01 0.03 0.07 0.10 0.00 0.00 0.00 0.00 0.00 0.00 0.00 0.00 0.00 0.00 0.00 0.00 0.00 0.00 0.00 0.00 0.00
0.00 0.00 0.00 0.00 0.00 0.00 0.00 0.00 0.00 0.00 0.00 0.00 0.00 0.00 0.00 0.00 0.00 0.00 0.00 0.00 0.00 0.00 0.00 0.00 0.00 0.00 0.00 0.01 0.16 0.26 0.36 0.10 0.00 0.00 0.00 0.00 0.00 0.00 0.00 0.00 0.00 0.00 0.00 0.00 0.00 0.00 0.00 0.00 0.00
0.00 0.00 0.00 0.00 0.00 0.00 0.00 0.00 0.00 0.00 0.00 0.00 0.00 0.00 0.00 0.00 0.00 0.00 0.00 0.00 0.00 0.00 0.00 0.00 0.00 0.00 0.00 0.02 0.12 0.23 0.13 0.01 0.00 0.00 0.00 0.00 0.00 0.00 0.00 0.00 0.00 0.00 0.00 0.00 0.00 0.00 0.00 0.00 0.01
0.00 0.00 0.00 0.00 0.00 0.00 0.00 0.00 0.00 0.00 0.00 0.00 0.00 0.00 0.00 0.00 0.00 0.00 0.00 0.00 0.01 0.00 0.00 0.00 0.00 0.00 0.00 0.00 0.03 0.03 0.01 0.00 0.00 0.00 0.00 0.00 0.00 0.00 0.00 0.00 0.00 0.00 0.00 0.00 0.00 0.00 0.00 0.00 0.00
MSLP
1008.72 1008.62 1007.86 1005.79 1004.04 1001.52 1001.46 1001.89 1001.89 1002.10 1002.17 1002.86 1003.63 1005.69 1006.41 1007.30 1007.09 1007.35 1007.70 1008.59 1009.37 1010.50 1012.00 1012.93 1013.64 1013.90 1014.18 1014.37 1014.57 1014.76 1014.98 1015.32 1015.55 1015.84 1016.06 1016.21 1016.43 1016.66 1016.76 1016.76 1016.59 1016.51 1016.99 1017.15 1017.32 1017.40 1017.45 1017.58 1017.70
1007.12 1006.97 1005.93 1003.74 1001.25 1001.09 1001.76 1002.21 1002.41 1002.88 1003.17 1003.17 1003.84 1004.21 1004.98 1006.72 1006.98 1007.67 1008.60 1009.36 1009.28 1010.50 1011.74 1012.70 1013.96 1014.19 1014.42 1014.70 1014.90 1015.07 1015.24 1015.56 1015.83 1016.07 1016.24 1016.44 1016.71 1016.82 1016.90 1016.86 1016.78 1017.11 1017.44 1017.52 1017.52 1017.63 1017.65 1017.80 1017.91
1007.43 1006.15 1004.33 1001.32 1001.01 1001.28 1001.82 1002.30 1002.52 1003.14 1003.45 1003.25 1004.12 1005.50 1005.92 1007.38 1007.66 1008.10 1009.39 1009.69 1009.56 1010.22 1011.10 1013.34 1014.14 1014.46 1014.70 1015.02 1015.20 1015.38 1015.58 1015.78 1015.98 1016.24 1016.50 1016.73 1016.86 1016.98 1017.01 1017.02 1017.06 1017.32 1017.53 1017.78 1017.76 1017.74 1017.86 1017.98 1018.01
1006.09 1004.72 1003.06 1000.45 1001.19 1001.63 1002.05 1002.49 1002.57 1002.83 1003.48 1004.02 1004.35 1006.20 1007.42 1008.12 1008.40 1008.70 1009.65 1009.86 1010.17 1010.27 1011.49 1013.91 1014.36 1014.71 1014.94 1015.25 1015.47 1015.66 1015.96 1016.12 1016.30 1016.52 1016.62 1016.81 1016.98 1017.00 1017.15 1017.17 1017.22 1017.44 1017.52 1017.82 1017.86 1017.91 1018.00 1018.08 1018.19
1005.43 1003.63 1000.73 1000.41 1001.18 1001.73 1002.36 1002.63 1002.69 1003.16 1004.01 1004.22 1004.93 1006.37 1007.54 1008.41 1008.65 1009.42 1009.82 1010.05 1010.29 1011.36 1012.41 1013.78 1014.56 1014.89 1015.13 1015.34 1015.59 1015.84 1016.04 1016.26 1016.47 1016.68 1016.83 1016.85 1017.06 1017.34 1017.34 1017.38 1017.39 1017.44 1017.60 1017.60 1017.75 1017.96 1018.07 1018.20 1018.30
1003.86 1000.98 1000.14 999.88 1000.84 1001.45 1001.90 1002.20 1002.38 1003.31 1003.91 1004.47 1005.18 1006.32 1007.81 1008.78 1009.08 1009.66 1010.05 1010.13 1010.28 1011.78 1012.20 1013.83 1014.84 1015.16 1015.36 1015.52 1015.61 1015.80 1016.00 1016.18 1016.42 1016.72 1016.93 1017.08 1017.10 1017.32 1017.45 1017.49 1017.56 1017.63 1017.72 1017.72 1017.66 1017.90 1017.99 1018.09 1018.32
1003.37 1000.66 1000.04 1000.02 1000.38 1001.37 1002.06 1001.94 1002.39 1002.98 1003.74 1004.74 1004.72 1005.88 1007.93 1008.28 1009.11 1009.73 1010.24 1010.32 1010.65 1011.73 1011.68 1013.40 1014.32 1015.19 1015.69 1015.82 1015.96 1016.04 1016.10 1016.27 1016.42 1016.58 1016.84 1017.13 1017.20 1017.36 1017.46 1017.49 1017.54 1017.58 1017.66 1017.78 1017.76 1017.78 1017.99 1018.14 1018.24
1002.41 1001.31 1000.50 1000.56 1000.08 1000.94 1001.76 1002.11 1002.58 1002.74 1004.42 1005.11 1005.14 1005.68 1007.27 1008.18 1009.33 1009.98 1010.54 1010.73 1010.98 1011.44 1011.81 1013.47 1014.24 1014.94 1015.11 1015.46 1016.02 1016.19 1016.35 1016.48 1016.51 1016.60 1016.66 1016.94 1017.17 1017.26 1017.40 1017.45 1017.46 1017.50 1017.60 1017.64 1017.68 1017.74 1017.83 1018.12 1018.18
1002.42 1005.25 1002.96 1000.01 1001.26 1000.59 1001.02 1001.98 1002.94 1003.36 1004.17 1004.97 1005.48 1005.69 1006.75 1008.62 1009.36 1009.90 1010.66 1011.19 1011.40 1011.59 1012.01 1013.21 1014.18 1014.73 1015.11 1015.29 1015.59 1016.10 1016.26 1016.37 1016.52 1016.67 1016.73 1016.76 1016.30 1016.53 1016.52 1016.64 1017.26 1017.38 1017.39 1017.43 1017.50 1017.52 1017.69 1017.83 1018.03
1002.64 1006.01 1002.23 1000.19 1000.38 1000.39 1001.24 1001.70 1002.54 1002.72 1003.93 1005.00 1005.98 1006.97 1007.88 1008.73 1009.40 1009.83 1010.52 1010.86 1011.31 1011.60 1012.01 1012.58 1013.37 1014.14 1014.66 1014.24 1015.28 1015.31 1015.29 1015.47 1015.55 1015.56 1016.22 1016.16 1015.45 1016.24 1016.24 1016.36 1016.98 1017.22 1017.08 1016.76 1016.73 1017.08 1017.41 1017.57 1017.17
1000.67 1001.36 1000.28 1000.64 1000.76 1000.54 1000.78 1001.34 1001.85 1002.16 1003.10 1004.24 1005.55 1006.96 1008.00 1008.68 1009.18 1009.68 1010.19 1010.50 1011.16 1011.59 1012.01 1012.63 1012.85 1013.69 1013.94 1013.48 1014.07 1014.61 1014.37 1014.50 1014.75 1015.05 1015.47 1015.47 1015.74 1015.37 1015.45 1015.76 1016.29 1016.51 1016.40 1015.72 1016.76 1015.92 1016.47 1016.45 1016.89
1000.20 1000.50 1000.34 1000.50 1000.88 1000.80 1000.44 1001.02 1001.67 1002.14 1003.29 1004.04 1005.35 1006.67 1007.60 1008.36 1008.96 1009.43 1009.93 1010.40 1011.05 1011.72 1012.21 1012.95 1012.97 1013.37 1013.60 1013.71 1013.85 1014.55 1014.58 1014.53 1014.48 1014.55 1015.33 1015.93 1015.95 1015.52 1015.93 1016.54 1015.86 1015.96 1015.59 1016.09 1015.34 1014.88 1014.80 1015.90 1016.26
1000.10 1000.12 1000.44 1000.53 1000.85 1000.65 1000.96 1000.99 1001.31 1002.25 1003.36 1004.37 1005.49 1006.52 1007.24 1007.79 1008.55 1009.14 1009.71 1010.34 1010.91 1011.62 1012.29 1012.87 1013.36 1013.71 1013.91 1014.19 1013.77 1014.47 1014.88 1015.03 1014.55 1014.82 1015.27 1015.90 1016.47 1016.29 1016.62 1016.82 1016.65 1016.48 1015.72 1014.50 1014.86 1014.91 1015.26 1015.58 1015.98
1000.10 1000.34 1000.11 1000.28 1000.52 1000.92 1000.78 1001.02 1001.80 1002.08 1003.41 1004.37 1005.45 1006.33 1006.91 1007.39 1008.09 1008.82 1009.46 1010.04 1010.71 1011.35 1012.00 1012.50 1013.26 1013.76 1014.17 1014.44 1014.51 1015.24 1015.32 1015.71 1015.60 1014.96 1015.37 1016.32 1016.57 1016.91 1016.99 1017.29 1017.27 1016.55 1015.54 1015.14 1015.09 1015.41 1015.60 1015.71 1015.29
1000.51 1000.24 999.90 999.95 1000.14 1000.16 1000.97 1000.82 1001.12 1002.25 1003.10 1004.20 1005.10 1006.00 1006.63 1007.25 1007.92 1008.63 1009.16 1009.82 1010.54 1011.13 1011.71 1012.37 1013.23 1013.79 1014.30 1014.57 1014.76 1015.32 1014.76 1015.94 1016.03 1016.13 1015.81 1016.22 1016.64 1016.89 1017.15 1017.30 1017.23 1015.62 1014.62 1014.74 1015.12 1015.17 1015.39 1015.75 1015.53
1000.31 999.75 998.73 999.39 999.94 1000.05 1000.90 1004.24 1002.76 1001.82 1002.79 1003.88 1004.75 1005.55 1006.39 1007.19 1007.80 1008.44 1009.08 1009.74 1010.38 1010.83 1011.60 1012.39 1013.13 1013.92 1014.33 1014.58 1014.59 1015.16 1015.28 1016.02 1016.42 1016.76 1015.66 1016.24 1016.39 1016.68 1017.11 1016.72 1015.45 1014.49 1013.74 1014.36 1015.18 1015.65 1015.66 1015.61 1015.54
999.37 999.28 1000.13 999.67 1000.08 1000.04 1000.28 999.74 1000.13 1001.12 1002.24 1003.34 1004.38 1005.20 1006.07 1006.98 1007.64 1008.25 1008.90 1009.51 1010.05 1010.78 1011.49 1012.42 1013.46 1013.86 1014.29 1014.54 1014.99 1015.43 1015.84 1015.81 1016.12 1016.31 1015.79 1015.85 1016.17 1016.44 1016.46 1015.38 1015.65 1012.71 1013.34 1014.22 1014.89 1015.22 1015.34 1015.59 1015.85
998.58 999.01 999.27 999.50 999.93 1000.26 1000.10 999.85 999.81 1000.56 1001.28 1002.26 1003.55 1004.73 1005.68 1006.48 1007.20 1008.00 1008.65 1009.16 1009.85 1010.53 1011.39 1012.44 1013.13 1013.82 1014.31 1014.48 1014.74 1015.34 1015.60 1015.80 1015.79 1015.53 1016.02 1016.08 1015.97 1016.16 1016.21 1015.17 1014.31 1013.64 1013.10 1013.81 1014.06 1014.40 1014.69 1015.02 1015.14
999.25 999.81 998.91 999.48 1000.17 1000.57 999.81 999.44 999.34 999.93 1000.78 1001.33 1002.55 1003.95 1005.00 1005.74 1006.54 1007.52 1008.34 1009.00 1009.57 1010.34 1011.25 1012.08 1013.24 1014.00 1014.27 1013.84 1014.41 1015.05 1015.28 1015.66 1015.76 1015.69 1015.58 1015.15 1015.38 1015.74 1015.66 1015.28 1014.46 1013.71 1013.85 1013.57 1013.86 1014.08 1014.32 1014.41 1014.89
1000.06 999.87 999.81 999.78 1000.46 1000.37 999.45 999.42 999.22 999.66 1000.22 1000.66 1001.44 1002.84 1004.26 1004.93 1005.98 1007.06 1008.10 1008.83 1009.42 1010.06 1011.03 1011.92 1012.89 1013.68 1014.23 1013.90 1013.99 1014.32 1015.02 1015.54 1015.51 1015.38 1015.50 1015.13 1014.71 1015.01 1014.63 1014.55 1014.10 1013.96 1013.67 1013.78 1014.13 1014.64 1014.72 1014.06 1014.38
1000.43 1000.07 999.78 999.86 1000.03 1000.20 999.74 999.36 999.06 999.76 1000.13 1000.76 1001.38 1001.66 1002.96 1004.04 1004.99 1006.58 1007.58 1008.41 1009.07 1009.84 1010.77 1011.60 1012.98 1013.48 1013.63 1014.16 1014.24 1014.63 1015.11 1015.18 1014.68 1014.40 1014.47 1014.42 1014.72 1014.71 1014.39 1014.09 1014.10 1014.30 1014.48 1013.80 1013.82 1013.96 1014.47 1014.47 1014.66
1000.36 1000.17 1000.18 999.97 1000.08 999.10 999.46 998.64 999.54 999.02 999.74 1000.22 1000.64 1001.08 1002.02 1003.42 1004.33 1005.80 1007.20 1008.14 1008.82 1009.59 1010.52 1011.27 1012.77 1013.00 1013.27 1013.91 1014.06 1014.12 1014.10 1013.94 1014.23 1014.59 1014.72 1014.84 1014.76 1014.53 1014.13 1014.20 1014.01 1014.16 1014.15 1014.04 1014.06 1014.22 1014.55 1014.75 1014.72
1000.42 999.74 1000.18 1000.48 1000.18 999.68 999.00 998.98 998.59 999.32 999.42 999.70 1000.34 1001.18 1001.58 1002.74 1003.86 1005.34 1006.68 1007.74 1008.56 1009.36 1010.36 1011.02 1012.49 1012.82 1013.39 1013.79 1013.75 1014.13 1013.90 1013.61 1013.94 1014.38 1014.66 1014.88 1014.72 1014.48 1014.29 1014.38 1014.24 1014.45 1014.40 1014.52 1014.61 1014.50 1014.57 1014.68 1014.60
1000.43 1000.80 1000.74 1000.72 1000.29 999.43 999.36 999.17 998.74 998.67 999.17 999.84 1000.66 1001.51 1001.80 1002.56 1003.78 1004.94 1006.35 1007.66 1008.50 1009.38 1010.23 1010.90 1012.16 1012.62 1013.24 1013.73 1013.84 1013.89 1013.58 1013.72 1013.84 1014.10 1014.46 1013.90 1014.01 1014.02 1014.60 1014.53 1014.60 1014.85 1014.89 1014.60 1014.64 1014.41 1014.33 1014.36 1014.24
1000.74 1000.61 1000.32 1000.14 999.51 998.89 999.18 999.67 999.38 999.84 1000.14 1000.33 1000.92 1001.44 1002.07 1002.68 1003.63 1004.86 1006.22 1007.50 1008.42 1009.36 1010.16 1010.90 1011.93 1012.49 1013.01 1013.32 1013.55 1013.58 1013.70 1013.96 1013.96 1013.98 1013.79 1014.18 1013.73 1013.90 1014.88 1015.12 1015.28 1015.24 1015.24 1015.02 1014.79 1014.47 1014.40 1014.35 1014.10
1000.53 1000.08 999.47 998.82 998.46 998.57 999.68 999.54 999.62 1000.08 1000.58 1001.11 1001.40 1001.56 1002.27 1002.88 1003.79 1004.86 1006.14 1007.32 1008.28 1009.16 1010.00 1010.70 1011.88 1012.42 1012.74 1013.03 1013.47 1013.59 1013.82 1013.79 1013.78 1014.37 1014.17 1014.30 1014.22 1014.57 1015.28 1015.52 1015.50 1015.43 1015.42 1015.13 1014.89 1014.88 1014.71 1014.44 1014.24
999.82 1000.12 999.81 999.49 999.39 999.50 998.95 999.31 999.88 1000.25 1000.49 1001.12 1001.48 1001.96 1002.61 1003.18 1003.95 1004.96 1006.08 1007.06 1007.96 1008.77 1009.56 1010.30 1011.69 1012.28 1012.70 1013.00 1013.35 1013.70 1013.93 1013.85 1013.92 1014.57 1014.85 1014.54 1015.09 1015.10 1015.69 1015.57 1015.50 1015.62 1015.64 1015.48 1015.29 1015.21 1015.12 1014.83 1014.57
999.86 999.90 999.97 1000.07 999.62 999.09 998.80 998.81 999.25 1000.04 1000.34 1001.56 1002.10 1002.82 1003.49 1003.87 1004.49 1005.12 1005.90 1006.77 1007.70 1008.56 1009.56 1010.33 1011.66 1012.22 1012.57 1013.00 1013.49 1013.83 1014.12 1014.37 1014.50 1014.81 1015.04 1015.11 1015.58 1015.86 1015.93 1015.66 1015.61 1015.61 1015.64 1015.69 1015.56 1015.44 1015.21 1015.00 1014.70
1000.14 1000.01 999.68 999.30 999.38 998.74 998.90 998.35 998.86 999.86 1000.40 1001.43 1002.65 1003.33 1003.83 1004.17 1004.64 1005.30 1005.79 1006.63 1007.52 1008.48 1009.58 1010.52 1011.56 1012.44 1013.00 1014.20 1014.96 1015.07 1014.73 1014.83 1015.02 1015.19 1015.14 1015.38 1015.81 1016.01 1016.04 1015.94 1015.80 1015.74 1015.78 1015.92 1015.87 1015.56 1015.32 1015.18 1014.85
999.28 999.46 1000.00 999.91 1000.04 1000.16 1000.15 1000.14 1000.01 1000.76 1001.19 1002.13 1003.18 1003.93 1004.34 1004.49 1004.74 1005.38 1005.94 1006.98 1007.50 1008.31 1009.46 1010.92 1011.94 1012.77 1013.84 1014.80 1015.31 1015.62 1015.50 1015.54 1015.08 1015.40 1015.47 1015.76 1016.26 1016.29 1016.14 1016.06 1016.00 1015.90 1015.99 1015.99 1016.03 1015.95 1015.88 1015.72 1015.47
Thickness
5850 5850 5857 5852 5830 5858 5827 5826 5846 5831 5833 5846 5843 5807 5793 5791 5785 5772 5827 5824 5817 5806 5793 5785 5780 5778 5775 5774 5771 5770 5768 5766 5763 5761 5759 5758 5756 5754 5755 5755 5757 5761 5756 5755 5753 5753 5752 5752 5752
5866 5866 5863 5855 5856 5825 5819 5840 5827 5833 5842 5852 5844 5836 5825 5799 5821 5816 5811 5817 5819 5807 5796 5788 5778 5775 5773 5770 5768 5767 5766 5763 5761 5759 5758 5756 5754 5754 5754 5755 5756 5755 5753 5752 5752 5752 5753 5752 5751
5866 5872 5850 5870 5853 5821 5818 5839 5840 5843 5849 5848 5835 5834 5822 5800 5818 5817 5817 5817 5817 5811 5802 5784 5777 5774 5772 5768 5766 5764 5763 5762 5760 5757 5755 5754 5753 5753 5753 5753 5754 5752 5750 5751 5751 5752 5752 5752 5752
5867 5869 5874 5865 5834 5844 5840 5845 5851 5846 5848 5849 5843 5810 5819 5823 5815 5823 5821 5820 5814 5813 5801 5782 5777 5773 5771 5767 5766 5763 5760 5758 5757 5755 5754 5754 5753 5753 5751 5752 5752 5751 5750 5749 5751 5751 5751 5751 5752
5875 5865 5859 5857 5845 5850 5854 5856 5857 5841 5837 5840 5840 5810 5808 5822 5829 5823 5821 5819 5813 5805 5795 5783 5775 5772 5770 5768 5766 5764 5762 5758 5755 5753 5752 5752 5750 5749 5750 5750 5750 5750 5750 5752 5752 5751 5750 5751 5752
5855 5891 5858 5851 5851 5859 5861 5867 5862 5847 5845 5842 5832 5819 5811 5827 5823 5822 5822 5819 5818 5802 5797 5783 5774 5770 5768 5766 5766 5765 5763 5761 5757 5753 5750 5749 5749 5748 5748 5749 5749 5749 5749 5750 5751 5751 5751 5752 5752
5855 5873 5866 5866 5858 5850 5853 5876 5857 5850 5844 5834 5849 5818 5818 5826 5830 5826 5821 5821 5816 5803 5802 5786 5777 5769 5764 5763 5761 5760 5761 5760 5758 5756 5753 5749 5748 5747 5747 5748 5749 5750 5749 5749 5750 5751 5750 5751 5753
5876 5871 5863 5864 5861 5850 5867 5869 5870 5861 5837 5857 5856 5822 5810 5828 5831 5826 5820 5816 5812 5807 5802 5785 5778 5771 5768 5765 5760 5758 5757 5757 5757 5756 5755 5752 5749 5748 5746 5747 5748 5749 5749 5750 5750 5751 5752 5752 5753
5893 5768 5807 5871 5844 5863 5886 5862 5871 5875 5852 5850 5851 5847 5845 5837 5833 5822 5813 5808 5805 5804 5801 5789 5778 5771 5767 5766 5763 5759 5757 5756 5756 5755 5755 5754 5756 5754 5754 5753 5750 5749 5750 5751 5752 5752 5753 5754 5753
5866 5774 5835 5890 5886 5876 5877 5872 5865 5862 5851 5842 5840 5845 5843 5836 5827 5817 5808 5803 5801 5800 5799 5796 5787 5777 5769 5771 5763 5762 5761 5760 5760 5761 5758 5758 5763 5757 5756 5755 5752 5750 5752 5756 5759 5756 5754 5755 5759
5889 5848 5890 5884 5888 5892 5882 5877 5883 5867 5847 5852 5839 5837 5837 5832 5826 5818 5813 5810 5803 5803 5799 5794 5790 5779 5773 5777 5771 5766 5767 5765 5763 5762 5760 5760 5759 5762 5761 5758 5754 5754 5757 5762 5751 5766 5760 5761 5760
5878 5888 5892 5888 5888 5885 5885 5888 5873 5874 5861 5872 5861 5851 5842 5831 5825 5821 5815 5811 5806 5801 5797 5791 5788 5781 5776 5775 5771 5764 5762 5763 5764 5763 5757 5753 5753 5759 5757 5752 5756 5756 5761 5749 5746 5771 5772 5764 5762
5880 5887 5890 5892 5887 5889 5890 5880 5878 5870 5876 5874 5863 5852 5843 5838 5832 5829 5823 5817 5810 5800 5796 5791 5786 5780 5774 5769 5769 5761 5757 5755 5758 5757 5755 5750 5747 5750 5748 5746 5748 5751 5758 5770 5769 5770 5767 5765 5763
5892 5886 5890 5892 5886 5884 5878 5879 5876 5877 5879 5866 5858 5849 5847 5843 5837 5831 5824 5818 5811 5805 5798 5795 5786 5777 5770 5765 5761 5751 5747 5745 5747 5753 5750 5747 5745 5742 5743 5741 5740 5749 5759 5762 5765 5764 5763 5763 5766
5888 5870 5885 5888 5888 5885 5886 5865 5865 5881 5878 5861 5856 5852 5849 5845 5842 5831 5829 5821 5815 5809 5803 5795 5786 5778 5770 5763 5757 5748 5750 5740 5740 5741 5742 5743 5742 5740 5738 5740 5742 5756 5765 5764 5762 5763 5762 5760 5761
5870 5882 5868 5888 5887 5890 5877 5767 5834 5886 5873 5858 5856 5853 5848 5844 5841 5838 5832 5826 5820 5813 5803 5797 5788 5777 5769 5761 5755 5747 5742 5737 5734 5734 5741 5739 5740 5739 5737 5743 5757 5764 5772 5766 5759 5757 5757 5758 5760
5875 5846 5837 5868 5885 5883 5875 5856 5884 5890 5874 5859 5856 5852 5847 5842 5841 5839 5836 5829 5823 5814 5805 5795 5784 5776 5769 5761 5751 5742 5736 5736 5734 5734 5739 5741 5741 5740 5741 5753 5732 5749 5770 5766 5760 5757 5757 5754 5753
5861 5866 5863 5858 5875 5874 5867 5869 5887 5886 5882 5869 5861 5854 5847 5842 5840 5840 5837 5833 5825 5816 5807 5794 5786 5777 5768 5762 5753 5741 5736 5736 5736 5739 5738 5739 5741 5739 5741 5752 5756 5760 5775 5767 5767 5762 5762 5758 5757
5873 5852 5862 5871 5876 5861 5868 5875 5887 5887 5882 5877 5867 5856 5849 5845 5849 5845 5839 5834 5826 5817 5805 5795 5782 5774 5768 5767 5754 5745 5739 5734 5735 5735 5738 5744 5742 5740 5742 5747 5757 5765 5765 5768 5767 5764 5760 5759 5757
5860 5852 5852 5871 5870 5864 5873 5867 5886 5887 5882 5884 5876 5864 5853 5851 5846 5842 5836 5832 5825 5817 5806 5795 5783 5776 5768 5768 5762 5755 5745 5737 5735 5738 5738 5742 5745 5744 5748 5752 5760 5762 5765 5764 5761 5756 5753 5759 5758
5848 5849 5856 5854 5867 5869 5866 5855 5870 5879 5883 5880 5879 5879 5867 5857 5848 5839 5835 5831 5826 5817 5807 5797 5782 5777 5774 5768 5763 5754 5748 5744 5745 5746 5746 5747 5745 5745 5749 5756 5758 5758 5757 5761 5761 5759 5752 5747 5750
5830 5867 5861 5858 5846 5837 5871 5828 5847 5876 5868 5872 5875 5875 5870 5861 5858 5846 5836 5829 5825 5818 5811 5801 5785 5782 5777 5769 5764 5759 5755 5751 5749 5743 5743 5743 5743 5746 5751 5753 5756 5756 5757 5757 5757 5755 5750 5747 5742
5839 5874 5858 5851 5845 5849 5858 5842 5861 5870 5858 5868 5871 5869 5872 5867 5859 5846 5838 5832 5828 5822 5810 5803 5787 5782 5776 5768 5766 5760 5757 5758 5755 5749 5745 5742 5746 5747 5748 5750 5751 5751 5752 5751 5750 5750 5748 5746 5743
5865 5847 5847 5848 5845 5821 5845 5844 5846 5860 5860 5864 5865 5864 5867 5864 5858 5851 5843 5833 5825 5820 5810 5803 5787 5780 5775 5767 5763 5759 5760 5754 5751 5749 5744 5750 5751 5752 5745 5747 5746 5744 5745 5748 5748 5750 5749 5746 5746
5845 5832 5805 5803 5813 5815 5853 5832 5844 5858 5862 5864 5858 5861 5863 5862 5856 5847 5836 5827 5820 5813 5807 5800 5787 5776 5772 5767 5763 5760 5756 5753 5749 5748 5751 5746 5751 5751 5742 5741 5740 5740 5740 5742 5746 5748 5746 5746 5746
5830 5838 5820 5796 5813 5827 5841 5814 5835 5860 5866 5864 5863 5865 5862 5858 5854 5846 5836 5827 5819 5812 5805 5798 5783 5775 5770 5765 5758 5755 5751 5750 5751 5743 5746 5746 5747 5745 5739 5735 5735 5735 5736 5740 5743 5742 5744 5746 5746
5834 5817 5856 5830 5840 5818 5839 5844 5854 5859 5856 5856 5855 5857 5852 5852 5849 5841 5836 5829 5820 5813 5806 5799 5782 5774 5767 5762 5756 5747 5744 5743 5741 5738 5737 5743 5739 5740 5734 5733 5734 5733 5734 5737 5740 5739 5739 5742 5743
5841 5856 5817 5824 5790 5793 5826 5827 5824 5835 5844 5843 5843 5841 5842 5845 5842 5838 5834 5828 5821 5814 5805 5798 5783 5771 5765 5759 5747 5733 5726 5733 5733 5732 5732 5736 5733 5731 5730 5731 5732 5732 5734 5735 5737 5738 5740 5741 5743
5823 5821 5835 5845 5831 5810 5795 5820 5855 5846 5849 5841 5838 5839 5839 5839 5838 5835 5833 5829 5821 5813 5803 5792 5781 5768 5759 5744 5728 5711 5718 5723 5724 5724 5729 5730 5728 5727 5727 5727 5728 5730 5731 5732 5733 5737 5740 5739 5741
5849 5835 5830 5808 5803 5820 5812 5809 5854 5848 5848 5843 5835 5834 5837 5839 5839 5835 5832 5823 5817 5810 5799 5784 5775 5765 5752 5739 5727 5720 5711 5714 5720 5720 5725 5724 5721 5722 5724 5725 5725 5727 5727 5729 5730 5731 5733 5733 5734